Regional Weather Roundup
Issued by NWS

Home | Current Version | Previous Version | Graphics & Text | Print | Product List | Glossary On
Versions: 1 2 3 4 5 6 7 8 9 10 11 12 13 14 15 16 17 18 19 20 21 22 23 24 25 26 27 28 29 30 31 32 33 34 35 36 37 38 39 40 41 42 43 44 45 46 47 48 49 50
000
ASUS43 KTOP 211008
RWRKS

WEATHER ROUNDUP FOR KANSAS
NATIONAL WEATHER SERVICE GOODLAND KS
500 AM CDT SUN OCT 21 2018

NOTE:  "FAIR" INDICATES FEW OR NO CLOUDS BELOW 12,000 FEET WITH NO
SIGNIFICANT WEATHER AND/OR OBSTRUCTIONS TO VISIBILITY.

KSZ001>006-013>018-027>032-041>047-211100-
NORTHWEST KANSAS

CITY           SKY/WX    TMP DP  RH WIND       PRES   REMARKS
GOODLAND       CLEAR     47  35  63 SW15      30.20F
HAYS           CLEAR     41  36  82 S5        30.30F
HILL CITY      CLEAR     44  35  70 S3        30.27F
RUSSELL        CLEAR     44  37  76 S13       30.29F
$$

KSZ061>065-074>080-084>089-211100-
SOUTHWEST KANSAS

CITY           SKY/WX    TMP DP  RH WIND       PRES   REMARKS
DODGE CITY     CLEAR     43  36  76 S8        30.30F
ELKHART        CLEAR     51  42  70 SW14      30.30F
GARDEN CITY    CLEAR     38  34  85 S8        30.28F
GREAT BEND     CLEAR     42  36  79 S10       30.32F
LIBERAL        CLEAR     40  36  86 SW6       30.31F
PRATT          CLEAR     48  33  55 S9        30.33F
$$

KSZ066>073-081>083-090>101-211100-
SOUTHEAST KANSAS

CITY           SKY/WX    TMP DP  RH WIND       PRES   REMARKS
CHANUTE        CLOUDY    38  31  76 E6        30.38S
COFFEYVILLE    CLEAR     36  33  89 E7        30.37F
HUTCHINSON     CLEAR     40  34  79 SE5       30.35F
MEDICINE LODGE   N/A     47  38  71 SE7       30.34F
NEWTON         CLEAR     39  31  72 SE8       30.36S
PARSONS        CLOUDY    38  32  79 CALM      30.39F
WICHITA INTL   CLEAR     41  32  70 S3        30.36S
WICHITA JABRA  CLEAR     39  32  76 S5        30.36S
WICHITA MCCONL CLEAR     41  30  65 SE5       30.36R
WINFIELD       PTCLDY    42  32  67 SE5       30.38R
$$

KSZ007>012-019>026-033>040-048>060-102>105-211100-
NORTHEAST KANSAS

CITY           SKY/WX    TMP DP  RH WIND       PRES   REMARKS
CONCORDIA      CLEAR     42  28  57 S14       30.32S
EMPORIA        FLURRIES  35  29  78 S8        30.38S
LAWRENCE       CLOUDY    29  27  92 SE3       30.40S
MANHATTAN      CLEAR     40  29  64 CALM      30.36F
MARYSVILLE     CLEAR     36  28  75 SE7       30.34F
OLATHE IND     CLOUDY    35  26  69 SE7       30.40F
OLATHE EXE     CLOUDY    34  25  69 S5        30.39S
SALINA         CLEAR     38  33  82 S5        30.35S
TOPEKA BILLARD CLOUDY    32  27  81 CALM      30.39S
TOPEKA FORBES  CLOUDY    34  27  75 CALM      30.37F
$$



USA.gov is the U.S. government's official web portal to all federal, state and local government web resources and services.